Location: Newark
(44.6768°N, 22.5302°E)
Time: 03:21:27
(UTC+00:00)

QB50P2 - Visible Passes

Search period start: 29 June 2022 00:00
Search period end: 09 July 2022 00:00
Orbit: 589 x 606 km, 97.9° (Epoch: 28 June)

Date Brightness Start Highest point End Pass type
(mag) Time Alt. Az. Time Alt. Az. Time Alt. Az.
29 Jun ? 01:23:11 10° NNW 01:25:23 14° WNW 01:27:36 10° W visible
29 Jun ? 23:56:28 10° NNE 00:00:43 82° ESE 00:01:58 45° S visible
30 Jun ? 01:34:29 10° NW 01:35:44 11° WNW 01:36:59 10° WNW visible
30 Jun ? 22:34:34 10° E 22:35:01 10° E 22:35:27 10° E visible
01 Jul ? 00:06:56 10° N 00:11:11 77° WNW 00:12:32 42° SSW visible
01 Jul ? 22:43:31 10° ENE 22:45:35 13° E 22:46:24 13° ESE visible
02 Jul ? 00:17:27 10° N 00:21:38 59° WNW 00:23:06 37° SW visible
02 Jul ? 22:53:20 10° NE 22:56:10 17° E 22:56:57 16° ESE visible
03 Jul ? 00:27:59 10° N 00:32:03 45° WNW 00:33:39 30° WSW visible
03 Jul ? 23:03:24 10° NE 23:06:43 22° E 23:07:30 21° ESE visible
04 Jul ? 00:38:35 10° N 00:42:27 36° WNW 00:44:13 25° WSW visible
04 Jul ? 23:13:35 10° NE 23:17:15 28° E 23:18:03 26° ESE visible
05 Jul ? 00:49:13 10° N 00:52:51 28° WNW 00:54:46 20° WSW visible
05 Jul ? 23:23:50 10° NNE 23:27:46 35° E 23:28:36 32° ESE visible
06 Jul ? 00:59:54 10° NNW 01:03:14 23° WNW 01:05:18 16° WSW visible
06 Jul ? 23:34:09 10° NNE 23:38:15 46° E 23:39:08 39° SE visible
07 Jul ? 01:10:39 10° NNW 01:13:35 18° WNW 01:15:51 13° W visible
07 Jul ? 23:44:30 10° NNE 23:48:44 60° E 23:49:41 47° SSE visible
08 Jul ? 01:21:32 10° NNW 01:23:54 15° WNW 01:26:17 10° W visible
